This demonstration page uses our WeatherBlox Daily Observations layout. Learn more.

Left ArrowRight Arrow

47.50024, -111.30081

Hourly Observations for May 14, 2022

Temp ( °F °C ) Dew Point ( °F °C ) Humidity (%) Winds ( mph kmh ) Pressure ( in mb ) Visibility ( mi km ) Precip ( " mm )
12:53 am 00:53 Clear 36 2.2 15 -9.4 42 42 SW 17 28 30.06 1018 10 16 0.00 0.00
1:53 am 01:53 Clear 32 0 16 -8.9 52 52 SW 13 20 30.09 1019 10 16 0.00 0.00
2:53 am 02:53 Clear 29 -1.7 16 -8.9 58 58 SSW 9 15 30.08 1019 10 16 0.00 0.00
3:53 am 03:53 Clear 30 -1.1 16 -8.9 56 56 SW 8 13 30.08 1019 10 16 0.00 0.00
4:53 am 04:53 Clear 34 1.1 16 -8.9 48 48 SSW 10 17 30.06 1018 10 16 0.00 0.00
5:53 am 05:53 Sunny 35 1.7 18 -7.8 50 50 SSW 15 24 30.06 1018 10 16 0.00 0.00
6:53 am 06:53 Sunny 40 4.4 19 -7.2 43 43 SW 15 24 30.06 1018 10 16 0.00 0.00
7:53 am 07:53 Sunny 47 8.3 21 -6.1 36 36 SW 21 33 30.04 1017 10 16 0.00 0.00
8:53 am 08:53 Sunny 49 9.4 22 -5.6 35 35 SW 16 26 30.06 1018 10 16 0.00 0.00
9:53 am 09:53 Mostly Sunny 49 9.4 23 -5 36 36 WSW 20 31 30.06 1018 10 16 0.00 0.00
10:53 am 10:53 Mostly Cloudy 52 11.1 25 -3.9 35 35 WSW 16 26 30.06 1018 10 16 0.00 0.00
11:53 am 11:53 Partly Cloudy 55 12.8 26 -3.3 33 33 SW 20 31 30.06 1018 10 16 0.00 0.00
12:53 pm 12:53 Mostly Cloudy 55 12.8 26 -3.3 33 33 VRB 7 11 30.04 1017 10 16 0.00 0.00
1:53 pm 13:53 Cloudy 57 13.9 29 -1.7 34 34 SSW 10 17 30.03 1017 10 16 0.00 0.00
2:53 pm 14:53 Mostly Cloudy 59 15 29 -1.7 32 32 W 15 24 30.02 1017 10 16 0.00 0.00
3:53 pm 15:53 Mostly Cloudy 59 15 30 -1.1 33 33 W 18 30 30.01 1016 10 16 0.00 0.00
4:53 pm 16:53 Cloudy 58 14.4 32 0 38 38 WSW 21 33 30.02 1017 10 16 0.00 0.00
5:53 pm 17:53 Mostly Cloudy 58 14.4 33 0.6 39 39 WSW 18 30 30.02 1017 10 16 0.00 0.00
6:53 pm 18:53 Mostly Sunny 56 13.3 34 1.1 44 44 SW 18 30 30.02 1017 10 16 0.00 0.00
7:53 pm 19:53 Partly Cloudy 56 13.3 31 -0.6 39 39 W 22 35 30.01 1016 10 16 0.00 0.00
8:53 pm 20:53 Sunny 51 10.6 31 -0.6 46 46 WSW 14 22 30.06 1018 10 16 0.00 0.00
9:53 pm 21:53 Clear 47 8.3 31 -0.6 54 54 W 12 19 30.11 1020 10 16 0.00 0.00
10:53 pm 22:53 Clear 43 6.1 32 0 65 65 WSW 12 19 30.13 1020 10 16 0.00 0.00
11:53 pm 23:53 Clear 41 5 32 0 70 70 WSW 14 22 30.14 1021 10 16 0.00 0.00

Powered by AerisWeather